THORAD AGENA D DEB, 42494

Orbit data source: Space-Track

THORAD AGENA D DEB, 42494 is space debris in SSO originally from a launch on Wed, 08 Apr 1970 UTC launched from the Air Force Western Test Range (AFWTR). Debris objects in space refer to the collection of defunct objects orbiting the Earth. Examples of debris include non-operational satellites, rocket bodies, and fragments generated from explosions, collisions, or faulty payload assembly.

Loading next visibility...
Identifier
42494, 1970-025QY
Orbit
SSO
Country
Flag of USUS
Related business
Manufacturer
Unknown
Mission
Spacecraft
Bus & Motor
Unknown
Mass
Unknown
Launch date (UTC)
1970-04-08 (56 years ago)
Launch vehicle
Unknown
Launch site
Air Force Western Test Range (AFWTR)
Object type
Payload
Rocket body
Debris
Shape & HBR
Unknown shape, 0.1 m
Radar Cross Section
Small (<0.1 m²)

Expand to show TLE details & history
Last TLE update: 2 days ago

TLE from 2 days ago
0 THORAD AGENA D DEB
1 42494U 70025QY  26034.47092932  .00000480  00000-0  67706-3 0  9999
2 42494  99.7050 116.1753 0099618 144.3230 216.4621 13.60189797593278
Epoch: 2026-02-03T11:18Z
TLE epoch observation values (Epoch: 2026-02-03T11:18:08.293Z)
Latitude
-0.00003°
Longitude
172.98936°
Altitude
1,097.463 km
Speed
7.274 km/s
True Right ascension
07h 44m 42s
True Declination
0° 00' 00"
Sunlit
Object was in full shadow at epoch
Visualization orbit readout
Latitude
Unknown
Longitude
Unknown
Altitude
Unknown
Speed
Unknown
Apparent Right ascension
Unknown
Apparent Declination
Unknown
Sunlit
N/A
Visualization observer readout
Local Sidereal Time
14:51:37
Azimuth
Unknown
Elevation
Unknown
Doppler factor
Unknown
Orbital elements
Apogee altitude
1,106.111 km
Perigee altitude
958.469 km
Semi-major axis
7,410.427 km
Eccentricity
0.00996
Inclination
99.705°
RAAN
116.1753°
Arg. of periapsis
144.323°
True anomaly
215.79044°
Mean anomaly
216.4621°
Eccentric anomaly
216.1256°
Mean motion
3.40234 °/min
Orbital period
105.81 mins
BSTAR
0.00067706

Documentation

Showing up to 5 results
|